TimeEST,TemperatureF,Dew PointF,Humidity,Sea Level PressureIn,VisibilityMPH,Wind Direction,Wind SpeedMPH,Gust SpeedMPH,PrecipitationIn,Events,Conditions,WindDirDegrees,DateUTC
12:53 AM,36.0,21.9,57,30.05,10.0,SSW,8.1,-,N/A,,Overcast,210,2014-01-05 05:53:00
1:53 AM,35.1,26.1,70,30.05,10.0,West,6.9,-,N/A,,Overcast,270,2014-01-05 06:53:00
2:53 AM,35.1,24.1,64,30.05,10.0,SSW,8.1,-,N/A,,Overcast,200,2014-01-05 07:53:00
3:53 AM,33.1,28.0,82,30.05,8.0,WSW,3.5,-,0.00,,Overcast,250,2014-01-05 08:53:00
4:53 AM,34.0,27.0,75,30.00,7.0,SSE,8.1,-,N/A,,Overcast,150,2014-01-05 09:53:00
5:53 AM,33.1,27.0,78,30.01,10.0,South,8.1,-,N/A,,Overcast,180,2014-01-05 10:53:00
6:53 AM,32.0,28.0,85,30.00,10.0,SSE,9.2,-,N/A,,Overcast,160,2014-01-05 11:53:00
7:53 AM,32.0,28.9,88,30.01,10.0,SSE,10.4,-,N/A,,Overcast,160,2014-01-05 12:53:00
8:53 AM,33.1,28.9,85,30.00,8.0,SSE,6.9,-,N/A,,Overcast,160,2014-01-05 13:53:00
9:53 AM,34.0,27.0,75,29.97,10.0,SSE,12.7,-,N/A,,Overcast,150,2014-01-05 14:53:00
10:29 AM,33.8,26.6,75,29.93,10.0,SE,6.9,-,N/A,,Overcast,140,2014-01-05 15:29:00
10:40 AM,33.8,26.6,75,29.91,9.0,SE,10.4,-,N/A,,Overcast,130,2014-01-05 15:40:00
10:53 AM,34.0,27.0,75,29.92,9.0,ESE,8.1,-,N/A,,Overcast,120,2014-01-05 15:53:00
11:19 AM,33.8,28.4,81,29.88,9.0,SE,3.5,-,N/A,,Overcast,130,2014-01-05 16:19:00
11:50 AM,33.8,28.4,81,29.84,3.0,East,5.8,-,0.00,Snow,Light Snow,80,2014-01-05 16:50:00
11:53 AM,33.1,28.9,85,29.86,2.0,East,5.8,-,0.00,Snow,Light Snow,90,2014-01-05 16:53:00
12:00 PM,33.8,28.4,81,29.83,1.2,East,5.8,-,0.00,Snow,Light Snow,100,2014-01-05 17:00:00
12:53 PM,32.0,28.9,88,29.78,1.2,ENE,8.1,-,0.03,Snow,Light Snow,60,2014-01-05 17:53:00
1:53 PM,33.1,28.9,85,29.73,1.5,ENE,8.1,-,0.07,Snow,Light Snow,60,2014-01-05 18:53:00
2:03 PM,33.8,30.2,87,29.69,2.5,ENE,8.1,-,0.01,Snow,Light Snow,60,2014-01-05 19:03:00
2:46 PM,33.8,30.2,87,29.67,1.8,ENE,5.8,-,0.07,Snow,Light Snow,70,2014-01-05 19:46:00
2:53 PM,33.1,30.0,89,29.70,1.5,ENE,6.9,-,0.08,Snow,Light Snow,70,2014-01-05 19:53:00
3:19 PM,33.8,30.2,87,29.64,3.0,East,11.5,-,0.05,Rain,Light Rain,90,2014-01-05 20:19:00
3:26 PM,33.8,30.2,87,29.64,4.0,East,11.5,-,0.06,Rain,Light Rain,90,2014-01-05 20:26:00
3:34 PM,33.8,30.2,87,29.64,4.0,East,6.9,-,0.07,Rain,Rain,90,2014-01-05 20:34:00
3:53 PM,34.0,30.9,89,29.66,4.0,East,9.2,-,0.10,Rain,Light Rain,80,2014-01-05 20:53:00
4:24 PM,33.8,30.2,87,29.63,2.5,Calm,Calm,-,0.06,Snow,Light Snow,0,2014-01-05 21:24:00
4:35 PM,33.8,30.2,87,29.62,3.0,ENE,8.1,-,0.09,Rain,Rain,70,2014-01-05 21:35:00
4:53 PM,34.0,30.9,89,29.63,3.0,East,5.8,-,0.12,Rain,Rain,90,2014-01-05 21:53:00
5:18 PM,33.8,30.2,87,29.58,3.0,East,5.8,-,0.04,Rain,Light Rain,80,2014-01-05 22:18:00
5:53 PM,35.1,32.0,89,29.60,4.0,SE,4.6,-,0.09,Rain,Rain,130,2014-01-05 22:53:00
6:06 PM,35.6,32.0,87,29.56,5.0,SSE,6.9,-,0.03,Rain,Rain,160,2014-01-05 23:06:00
6:46 PM,33.8,30.2,87,29.53,2.0,North,5.8,-,0.05,Snow,Light Snow,350,2014-01-05 23:46:00
6:48 PM,33.8,30.2,87,29.53,1.8,North,6.9,-,0.05,Snow,Light Snow,350,2014-01-05 23:48:00
6:53 PM,33.1,30.9,92,29.55,1.5,North,6.9,-,0.06,Snow,Light Snow,360,2014-01-05 23:53:00
7:09 PM,33.8,30.2,87,29.51,1.5,North,10.4,-,0.01,Snow,Light Snow,350,2014-01-06 00:09:00
7:51 PM,30.2,26.6,86,29.51,1.0,North,13.8,-,0.05,Snow,Light Snow,360,2014-01-06 00:51:00
7:53 PM,30.0,27.0,88,29.54,1.2,North,13.8,-,0.05,Snow,Light Snow,360,2014-01-06 00:53:00
8:53 PM,30.0,27.0,88,29.52,1.2,North,13.8,-,0.02,Snow,Light Snow,350,2014-01-06 01:53:00
9:08 PM,26.6,23.0,86,29.50,0.8,NNW,18.4,-,0.00,Snow,Light Snow,330,2014-01-06 02:08:00
9:34 PM,26.6,21.2,80,29.51,1.0,NNW,13.8,-,0.01,Snow,Light Snow,330,2014-01-06 02:34:00
9:45 PM,24.8,21.2,86,29.50,0.8,NNW,17.3,23.0,0.01,Snow,Light Snow,330,2014-01-06 02:45:00
9:53 PM,25.0,21.0,85,29.55,1.0,NW,15.0,24.2,0.02,Snow,Light Snow,320,2014-01-06 02:53:00
10:22 PM,24.8,19.4,80,29.53,1.2,NW,17.3,26.5,0.00,Snow,Light Snow,320,2014-01-06 03:22:00
10:31 PM,24.8,19.4,80,29.54,1.5,NW,23.0,28.8,0.00,Snow,Light Snow,310,2014-01-06 03:31:00
10:51 PM,24.8,19.4,80,29.55,1.0,NW,23.0,31.1,0.00,Snow,Light Snow,310,2014-01-06 03:51:00
10:53 PM,24.1,19.9,84,29.58,1.0,NW,19.6,31.1,0.00,Snow,Light Snow,320,2014-01-06 03:53:00
11:04 PM,23.0,19.4,86,29.54,1.8,NW,16.1,26.5,0.00,Snow,Light Snow,310,2014-01-06 04:04:00
11:08 PM,23.0,19.4,86,29.56,2.5,NW,20.7,25.3,0.00,Snow,Light Snow,310,2014-01-06 04:08:00
11:16 PM,23.0,19.4,86,29.57,4.0,NW,23.0,-,0.00,Snow,Light Snow,310,2014-01-06 04:16:00
11:28 PM,23.0,17.6,80,29.58,5.0,WNW,23.0,29.9,0.00,,Overcast,300,2014-01-06 04:28:00
11:53 PM,21.9,17.1,82,29.64,5.0,NW,23.0,34.5,0.00,,Overcast,310,2014-01-06 04:53:00